sat.trackr.live / text

‹ back to catalog

STARLINK-3547

NORAD 51889 · 2022-022AP

PAYLOAD ACTIVE UNKNOWN

§ Identity

Operator
Country
US
Launch date
2022-03-03
Launch site
AFETR
Launch vehicle
Mass (kg)
RCS (m²)

Purposes: comms

External: N2YO · Heavens-Above · Gunter

§ Orbital elements

Epoch: 2026-05-25T01:21:09.980064Z

Period
95.44 min
Inclination
53.2147°
Eccentricity
0.0001599
Mean motion
15.08844356 rev/d
Perigee alt
538.6 km
Apogee alt
540.8 km
Semi-major
6,917.9 km
B*
-7.1734e-5
RAAN
16.2974°
Arg perigee
102.0323°
Mean anomaly
258.0848°
Rev number
23,477

§ Raw data

STARLINK-35471 51889U 22022AP  26145.05636551 -.00001430  00000+0 -71734-4 0  99932 51889  53.2147  16.2974 0001599 102.0323 258.0848 15.08844356234771

JSON: /api/v1/satellites/51889 · /tle

For live sub-satellite position, see the globe view (requires WebGL).

§ Visibility from observer

Set your observer location to see the next 7 days of passes ≥ 10°. The values pass through the URL so the page stays shareable.

No JS? Fill the form by hand. The geolocation button needs JavaScript.